Volver al catálogo

STARLINK-32086

ActivoComunicacionesVLEO
NORAD 59703·PAYLOAD·🇺🇸 United States

Lanzado May 8, 2024 desde Cape Canaveral Space Force Station

Loading…

Próximos Pases (próximas 24 horas)

TLE

ActualizadoSource: CelesTrak SupGP

Época: Sep 15, 2026, 02:30 UTC

1 59703C 24086X   26258.10465278 -.00011441  00000+0 -41429-3 0  2583
2 59703  42.9997  69.8632 0001467 241.7624 145.5226 15.27592964    10

Sigue STARLINK-32086 en tiempo real con AllMySat

Download on the App Store